Flag for U.S.A. Weather past 2 weeks in Colorado Springs, Colorado, U.S.A.

Now
85 °F

Scattered clouds.


Feels Like: 82 °F
Forecast: 47 / 80 °F
Wind: 10 mph from Southeast

Location: City Of Colorado Springs Municipal Airport

Current Time: Sep 16, 2014 at 4:12:17 PM

Latest Report: Sep 16, 2014 at 3:54 PM


Visibility: 10 mi

Pressure: 29.91 "Hg

Humidity: 13%

Dew point: 29 °F

Location of Colorado SpringsLocation

Historic Weather in Colorado Springs — Graph

°F

Colorado Springs temperature yesterday

Maximum temperature yesterday: 69 °F (at 10:54 AM)
Minimum temperature yesterday: 53 °F (at 9:54 PM)
Average temperature yesterday: 61 °F

Past Weeks' High & Low Weather Summary

 TemperatureHumidityPressure
High91 °F (Sep 3, 3:54 PM)93% (Sep 6, 5:54 AM)30.49 "Hg (Sep 6, 5:54 AM)
Low35 °F (Sep 12, 5:54 AM)10% (Sep 3, 3:54 PM)29.61 "Hg (Sep 3, 11:54 PM)
Average61 °F58%30.02 "Hg
* Reported Sep 1 2:54 PM — Sep 16 2:54 PM, Colorado Springs, Weather by CustomWeather, © 2014

Note: Actual official high and low records may vary slightly from our data, if they occured in-between our weather recording intervals... More about our weather records

Advertising

Colorado Springs weather history for previous 24 hours

 ConditionsComfort  
Time TempWeatherWind HumidityBarometerVisibility
2:54 PM
Sep 16
88 °FScattered clouds.6 mph12%29.91 "Hg10 mi
1:54 PM85 °FScattered clouds.5 mph14%29.96 "Hg10 mi
12:54 PM83 °FScattered clouds.3 mph15%29.98 "Hg10 mi
11:54 AM83 °FScattered clouds.9 mph15%30.01 "Hg10 mi
10:54 AM82 °FPassing clouds.10 mph17%30.02 "Hg10 mi
9:54 AM76 °FPassing clouds.9 mph33%30.06 "Hg10 mi
8:54 AM61 °FPassing clouds.5 mph65%30.11 "Hg10 mi
7:54 AM53 °FPassing clouds.3 mph86%30.14 "Hg10 mi
6:54 AM50 °FFog.3 mph89%30.14 "Hg5 mi
5:54 AM52 °FFog.3 mph86%30.13 "Hg5 mi
4:54 AM53 °FFog.No wind89%30.13 "Hg6 mi
3:54 AM53 °FFog.No wind89%30.12 "Hg5 mi
2:54 AM53 °FFog.No wind89%30.13 "Hg5 mi
1:54 AM53 °FFog.6 mph93%30.16 "Hg5 mi
12:54 AM53 °FFog.8 mph93%30.17 "Hg3 mi
11:54 PM
Sep 15
53 °FFog.9 mph93%30.19 "Hg5 mi
10:54 PM53 °FFog.9 mph93%30.20 "Hg5 mi
9:54 PM53 °FLow clouds.8 mph93%30.21 "Hg7 mi
8:54 PM55 °FPassing clouds.9 mph80%30.22 "Hg10 mi
7:54 PM58 °FScattered clouds.7 mph72%30.20 "Hg10 mi
6:54 PM61 °FScattered clouds.13 mph62%30.18 "Hg10 mi
5:54 PM64 °FThunderstorms. Partly sunny.12 mph58%30.17 "Hg10 mi
4:54 PM65 °FScattered clouds.13 mph52%30.16 "Hg10 mi
Weather by CustomWeather, © 2014

See weather overviewHow to use our weather pages